sat.trackr.live / text

‹ back to catalog

STARLINK-36705

NORAD 67712 · 2026-025V

PAYLOAD ACTIVE UNKNOWN

§ Identity

Operator
Country
US
Launch date
2026-02-07
Launch site
AFWTR
Launch vehicle
Mass (kg)
RCS (m²)

Purposes: comms

External: N2YO · Heavens-Above · Gunter

§ Orbital elements

Epoch: 2026-09-19T14:03:29.047968Z

Period
93.91 min
Inclination
97.2842°
Eccentricity
0.0001052
Mean motion
15.33450747 rev/d
Perigee alt
464.8 km
Apogee alt
466.2 km
Semi-major
6,843.7 km
B*
5.0673e-4
RAAN
12.4681°
Arg perigee
83.3203°
Mean anomaly
276.8160°
Rev number
3,572

§ Raw data

STARLINK-367051 67712U 26025V   26262.58575287  .00016322  00000+0  50673-3 0  99902 67712  97.2842  12.4681 0001052  83.3203 276.8160 15.33450747 35722

JSON: /api/v1/satellites/67712 · /tle

For live sub-satellite position, see the globe view (requires WebGL).

§ Visibility from observer

Set your observer location to see the next 7 days of passes ≥ 10°. The values pass through the URL so the page stays shareable.

No JS? Fill the form by hand. The geolocation button needs JavaScript.